Volver al catálogo

STARLINK-31903

ActivoComunicacionesVLEO
NORAD 59845·PAYLOAD·🇺🇸 United States

Lanzado May 23, 2024 desde Cape Canaveral Space Force Station

Loading…

Próximos Pases (próximas 24 horas)

TLE

ActualizadoSource: CelesTrak SupGP

Época: Sep 14, 2026, 21:22 UTC

1 59845C 24097L   26257.89076389  .00016702  00000+0  60506-3 0  2577
2 59845  42.9996 278.8539 0001469 265.0481  88.8317 15.27563379    14

Sigue STARLINK-31903 en tiempo real con AllMySat

Download on the App Store